Weather History for Fort Myers, FL

Change the Weather History Date:

Friday, April 5, 2013

  Actual Average Record
Temperature  
Mean Temperature 69 °F 72 °F  
Max Temperature 75 °F 83 °F 90 °F (1933)
Min Temperature 62 °F 62 °F 42 °F (1987)
Degree Days  
Heating Degree Days 0 0  
Month to date heating degree days 0 0  
Since 1 July heating degree days 201 284  
Cooling Degree Days 4 8  
Month to date cooling degree days 44 36  
Year to date cooling degree days 426 397  
Growing Degree Days 18 (Base 50)    
Moisture  
Dew Point 62 °F    
Average Humidity 79    
Maximum Humidity 87    
Minimum Humidity 53    
Precipitation  
Precipitation 0.57 in 0.08 in 2.36 in (1991)
Month to date precipitation 1.26 0.42  
Year to date precipitation 4.52 7.39  
Sea Level Pressure  
Sea Level Pressure 29.93 in    
Wind  
Wind Speed 11 mph (West)    
Max Wind Speed 21 mph    
Max Gust Speed 26 mph    
Visibility 8 miles    
Events Rain , Thunderstorm    
T = Trace of Precipitation, MM = Missing Value Source: NWS Daily Summary

Daily Weather History Graph

Daily Weather History Graph

Search for Another Location

Airport:

Trip Planner

Search our weather history database for the weather conditions in past years. The results will help you decide how hot, cold, wet, or windy it might be!

Date:

Astronomy

Apr. 05, 2013 Rise Set
Actual Time 7:13 AM EDT 7:46 PM EDT
Civil Twilight 6:50 AM EDT 8:10 PM EDT
Nautical Twilight 6:23 AM EDT 8:37 PM EDT
Astronomical Twilight 5:55 AM EDT 9:05 PM EDT
Moon 3:54 AM EDT (4/5) 3:33 PM EDT (4/5)
Length of Visible Light 13h 19m
Length of Day
12h 32m
Waning Crescent, 24% of the Moon is Illuminated
Apr 5
Waning Crescent
Apr 10
New
Apr 18
First Quarter
Apr 25
Full
May 2
Last Quarter

Hourly Weather History & Observations

Time (EDT) Temp. Dew Point Humidity Pressure Visibility Wind Dir Wind Speed Gust Speed Precip Events Conditions
12:26 AM 66.2 °F 64.4 °F 94% 30.01 in 6.0 mi Calm Calm - 0.08 in Rain Light Rain
12:48 AM 66.2 °F 64.4 °F 94% 29.99 in 6.0 mi NW 6.9 mph - 0.16 in Rain , Thunderstorm Light Rain
12:53 AM 66.9 °F 64.9 °F 93% 30.00 in 6.0 mi NW 9.2 mph - 0.17 in Rain , Thunderstorm Rain
1:08 AM 68.0 °F 64.4 °F 88% 30.00 in 5.0 mi NW 9.2 mph - 0.05 in Rain Rain
1:21 AM 66.2 °F 64.4 °F 94% 30.00 in 5.0 mi WNW 9.2 mph - 0.10 in Rain , Thunderstorm Rain
1:36 AM 66.2 °F 64.4 °F 94% 30.00 in 6.0 mi WNW 6.9 mph - 0.14 in Rain Light Rain
1:49 AM 66.2 °F 64.4 °F 94% 29.99 in 5.0 mi West 6.9 mph - 0.17 in Rain , Thunderstorm Light Rain
1:53 AM 66.9 °F 64.0 °F 90% 30.00 in 6.0 mi WSW 4.6 mph - 0.18 in Rain , Thunderstorm Light Rain
2:04 AM 66.2 °F 64.4 °F 94% 29.96 in 5.0 mi Calm Calm - 0.02 in Rain Light Rain
2:53 AM 66.9 °F 64.9 °F 93% 29.94 in 7.0 mi SE 5.8 mph - 0.09 in Rain Light Rain
3:53 AM 68.0 °F 62.1 °F 81% 29.85 in 10.0 mi South 11.5 mph 20.7 mph 0.04 in Rain Light Rain
4:53 AM 70.0 °F 62.1 °F 76% 29.84 in 10.0 mi SW 11.5 mph - 0.00 in   Partly Cloudy
5:53 AM 72.0 °F 63.0 °F 73% 29.86 in 10.0 mi SW 10.4 mph 20.7 mph N/A   Mostly Cloudy
6:53 AM 73.0 °F 62.1 °F 68% 29.86 in 10.0 mi SW 13.8 mph 21.9 mph N/A   Mostly Cloudy
7:53 AM 69.1 °F 64.0 °F 84% 29.91 in 6.0 mi WSW 13.8 mph 21.9 mph 0.03 in Rain Light Rain
8:53 AM 68.0 °F 64.0 °F 87% 29.91 in 4.0 mi SSW 8.1 mph 18.4 mph 0.20 in Rain Light Rain
9:53 AM 69.1 °F 64.9 °F 87% 29.91 in 10.0 mi WSW 4.6 mph - 0.05 in   Scattered Clouds
10:53 AM 72.0 °F 64.9 °F 78% 29.92 in 10.0 mi West 5.8 mph - N/A   Mostly Cloudy
11:53 AM 72.0 °F 64.9 °F 78% 29.93 in 10.0 mi WSW 11.5 mph - N/A   Mostly Cloudy
12:53 PM 72.0 °F 66.0 °F 81% 29.92 in 10.0 mi West 15.0 mph - N/A   Mostly Cloudy
1:30 PM 73.4 °F 66.2 °F 78% 29.90 in 10.0 mi West 16.1 mph - N/A   Mostly Cloudy
1:53 PM 73.9 °F 64.9 °F 73% 29.90 in 10.0 mi West 13.8 mph 20.7 mph N/A   Overcast
2:49 PM 73.4 °F 62.6 °F 69% 29.89 in 10.0 mi West 12.7 mph - N/A   Overcast
2:53 PM 73.0 °F 62.1 °F 68% 29.89 in 10.0 mi WSW 12.7 mph - N/A   Overcast
3:53 PM 73.0 °F 60.1 °F 64% 29.86 in 10.0 mi WNW 11.5 mph - N/A   Overcast
4:53 PM 73.0 °F 60.1 °F 64% 29.85 in 10.0 mi NW 12.7 mph 20.7 mph N/A   Overcast
5:53 PM 73.0 °F 57.0 °F 57% 29.86 in 10.0 mi NNW 12.7 mph - N/A   Overcast
6:53 PM 72.0 °F 54.0 °F 53% 29.87 in 10.0 mi NW 11.5 mph - N/A   Partly Cloudy
7:53 PM 68.0 °F 54.0 °F 61% 29.89 in 10.0 mi WNW 11.5 mph - N/A   Clear
8:53 PM 64.9 °F 54.0 °F 68% 29.92 in 10.0 mi NW 13.8 mph - N/A   Clear
9:53 PM 64.9 °F 55.0 °F 70% 29.95 in 10.0 mi NW 11.5 mph - N/A   Clear
10:53 PM 64.0 °F 55.9 °F 75% 29.97 in 10.0 mi NW 11.5 mph - N/A   Scattered Clouds
11:53 PM 63.0 °F 55.0 °F 75% 29.99 in 10.0 mi NNW 10.4 mph - N/A   Mostly Cloudy